Regional Weather Roundup
Issued by NWS Kansas City/Pleasant Hill, MO

Home | Current Version | Previous Version | Text Only | Print | Product List | Glossary On
Versions: 1 2 3 4 5 6 7 8 9 10 11 12 13 14 15 16 17 18 19 20 21 22 23 24 25 26 27 28
000
ASUS43 KEAX 180710
RWREAX

WEATHER ROUNDUP FOR EASTERN KANSAS AND NORTHWEST MISSOURI
NATIONAL WEATHER SERVICE KANSAS CITY/PLEASANT HILL MO
100 AM CST SUN FEB 18 2018

KSZ040-057-103>105-MOZ028-029-037-043-180800-
...KANSAS CITY METROPOLITAN AREA...

CITY           SKY/WX    TMP DP  RH WIND       PRES   REMARKS
K.C. INTL      CLEAR     33  19  56 SE12      30.14F WCI  24
K.C. DOWNTOWN  CLEAR     36  22  56 CALM      30.16F
LEES SUMMIT    CLEAR     37  21  52 S12       30.17F WCI  29
OLATHE - IXD   CLEAR     33  21  61 SE9       30.16F WCI  25
OLATHE - OJC   CLEAR     35  20  54 SE7       30.16S WCI  29
LAWRENCE       CLEAR     22  19  89 E5        30.15F WCI  16

$$

MOZ001>008-011>017-020>025-030>033-038>040-044>046-053-054-180800-
...NORTHERN AND CENTRAL MISSOURI...

CITY           SKY/WX    TMP DP  RH WIND       PRES   REMARKS
ST. JOSEPH     CLEAR     20  17  88 CALM      30.15F
MOSBY          SUNNY     23  19  86 CALM      30.17F
WARRENSBURG    CLEAR     32  21  64 SE6       30.20S WCI  26
WHITEMAN AFB   CLEAR     31  20  64 S3        30.16S
CLINTON        CLEAR     28  23  80 SE3       30.21F
SEDALIA        CLEAR     34  21  59 S8        30.22S WCI  27
WARSAW         NOT AVBL
CHILLICOTHE      N/A     23  18  81 CALM      30.20F
KIRKSVILLE     CLEAR     27  21  78 E3        30.20S

$$

MOZ041-047>049-056>058-063>065-088>090-097-180800-
...EASTERN AND SOUTHERN MISSOURI...

CITY           SKY/WX    TMP DP  RH WIND       PRES   REMARKS
ST. LOUIS INTL CLEAR     28  27  96 CALM      30.26R
SPIRIT OF STL  CLEAR     25  24  96 CALM      30.25R FOG
COLUMBIA       CLEAR     35  23  61 S6        30.22R WCI  30
JEFFERSON CITY CLEAR     26  23  88 SE3       30.24R
ROLLA          CLEAR     26  22  84 S5        30.24R WCI  20
OSAGE BEACH    CLEAR     26  24  92 SE3       30.25R
SPRINGFIELD    CLOUDY    33  31  92 SE9       30.22S WCI  25
JOPLIN         PTCLDY    35  33  92 S8        30.23R WCI  29
WEST PLAINS    CLEAR     31  29  92 CALM      30.25R FOG

$$

IAZ060-094-KSZ022-034>040-054-083-096-NEZ052-066-093-180800-
...KANSAS...SOUTHEAST NEBRASKA AND IOWA...

CITY           SKY/WX    TMP DP  RH WIND       PRES   REMARKS
TOPEKA         CLEAR     28  21  75 CALM      30.13F
MANHATTAN      CLEAR     27  16  63 W3        30.10F
EMPORIA        CLOUDY    31  17  56 S10       30.14F WCI  22
CHANUTE        CLOUDY    32  26  78 S8        30.19S WCI  25
WICHITA        CLOUDY    36  15  42 SE10      30.13F WCI  28
OMAHA          CLEAR     29  23  78 S12       30.06F WCI  19
LINCOLN        CLEAR     27  21  78 S7        30.05F WCI  19
FALLS CITY     CLEAR     26  18  71 SE8       30.10F WCI  18
LAMONI         CLEAR     30  22  72 SE7       30.14F WCI  23
DES MOINES     CLEAR     25  21  85 SE3       30.13F

$$





USA.gov is the U.S. government's official web portal to all federal, state and local government web resources and services.